DW8397 Weather Reports


time (UTC)temp
C
wind
direction
speed
KPH
gust
KPH
rain 1hr
cm
rain 24hr
cm
rain mn
cm
humidity
%
barometer
mb
20260904121518 13 38 0.0 4.8 0.00 0.05 0.03 87 1010.6
20260904120020 13 20 0.0 0.0 0.00 0.05 0.03 87 1010.4
20260904114514 12 21 0.0 0.0 0.00 0.05 0.03 87 1010.5
20260904113011 12 22 0.0 0.0 0.00 0.05 0.03 87 1010.4
20260904111508 12 22 0.0 0.0 0.03 0.05 0.03 87 1010.1
20260904110007 12 22 0.0 0.0 0.03 0.05 0.03 87 1010.0
20260904104507 12 22 0.0 0.0 0.03 0.05 0.03 87 1009.8
20260904103004 11 22 0.0 0.0 0.03 0.05 0.03 88 1009.8
20260904101504 11 23 0.0 0.0 0.00 0.03 0.00 88 1009.8
20260904100004 12 23 0.0 0.0 0.00 0.03 0.00 87 1009.7
20260904094503 12 23 0.0 0.0 0.00 0.03 0.00 87 1009.4
20260904093002 12 24 0.0 0.0 0.00 0.03 0.00 88 1009.4
20260904091502 12 24 0.0 0.0 0.00 0.03 0.00 88 1009.4
20260904090107 12 24 0.0 0.0 0.00 0.03 0.00 88 1009.4
20260904084600 12 24 0.0 0.0 0.00 0.03 0.00 88 1009.3
20260904083144 12 24 0.0 0.0 0.00 0.03 0.00 88 1009.4
20260904081601 12 24 0.0 0.0 0.00 0.03 0.00 88 1009.6
20260904080054 12 24 0.0 0.0 0.00 0.03 0.00 88 1009.5
20260904074554 12 24 0.0 0.0 0.00 0.03 0.00 88 1009.4
20260904073058 12 24 0.0 0.0 0.00 0.03 0.00 88 1009.6
20260904071616 12 24 0.0 0.0 0.00 0.03 0.00 88 1009.7
20260904070112 13 24 0.0 0.0 0.00 0.03 0.00 88 1009.6
20260904064549 13 24 0.0 0.0 0.00 0.03 0.00 88 1009.8
20260904063100 13 24 0.0 0.0 0.00 0.03 0.00 88 1009.6
20260904061544 13 24 0.0 0.0 0.00 0.03 0.00 87 1009.8
20260904060042 13 24 0.0 0.0 0.00 0.03 0.00 88 1010.1
20260904054547 13 24 0.0 0.0 0.00 0.03 0.00 87 1010.2
20260904053051 14 24 0.0 0.0 0.00 0.03 0.00 88 1010.5
20260904051541 14 24 0.0 0.0 0.00 0.03 0.00 88 1010.7
20260904050039 14 24 0.0 0.0 0.00 0.03 0.00 87 1010.7
20260904044534 14 24 0.0 0.0 0.00 0.03 0.00 88 1010.8
20260904043036 15 24 0.0 0.0 0.00 0.03 0.00 88 1010.7
20260904041531 15 24 0.0 0.0 0.00 0.03 0.00 87 1010.7
20260904040029 15 24 0.0 0.0 0.00 0.03 0.00 87 1010.7
20260904034528 15 24 0.0 0.0 0.00 0.03 0.03 87 1010.7
20260904033029 15 24 0.0 0.0 0.00 0.03 0.03 87 1010.9
20260904031535 16 24 0.0 0.0 0.00 0.03 0.03 87 1010.9
20260904030027 16 24 0.0 0.0 0.00 0.03 0.03 87 1011.0
20260904024526 16 24 0.0 0.0 0.00 0.03 0.03 87 1011.2
20260904023026 16 24 0.0 0.0 0.00 0.03 0.03 87 1011.2
20260904021529 17 24 0.0 0.0 0.00 0.03 0.03 87 1011.3
20260904020026 17 24 0.0 0.0 0.00 0.03 0.03 87 1011.1
20260904014524 17 24 0.0 0.0 0.00 0.03 0.03 87 1011.2
20260904013124 17 24 0.0 0.0 0.00 0.03 0.03 87 1011.1
20260904011525 17 25 0.0 0.0 0.00 0.03 0.03 87 1011.2
20260904010024 17 25 0.0 0.0 0.00 0.03 0.03 87 1011.0
20260904004522 18 25 0.0 0.0 0.00 0.03 0.03 87 1011.0
20260904003022 18 25 0.0 0.0 0.00 0.03 0.03 87 1010.9
20260904001522 18 25 0.0 0.0 0.00 0.03 0.03 87 1010.7
20260904000023 19 25 0.0 0.0 0.00 0.03 0.03 87 1010.3
20260903234521 20 40 0.0 0.0 0.00 0.03 0.03 86 1010.2
20260903233022 20 40 0.0 0.0 0.00 0.03 0.03 85 1010.1
20260903231523 21 40 0.0 0.0 0.00 0.03 0.03 85 1010.1
20260903230033 22 13 0.0 3.2 0.00 0.03 0.03 84 1010.3
20260903224521 22 206 0.0 0.0 0.00 0.03 0.03 83 1010.3
20260903223023 22 206 0.0 0.0 0.00 0.03 0.03 81 1010.3
20260903221517 23 244 0.0 0.0 0.00 0.03 0.03 80 1010.1
20260903220024 23 225 0.0 0.0 0.00 0.03 0.03 80 1010.4
20260903214526 23 210 0.0 4.8 0.00 0.03 0.03 80 1010.4
20260903213014 23 198 3.2 9.7 0.00 0.03 0.03 80 1010.7
20260903211526 23 206 1.6 11.3 0.00 0.03 0.03 78 1010.6
20260903210017 23 212 3.2 9.7 0.00 0.03 0.03 78 1010.4
20260903204513 23 244 0.0 9.7 0.00 0.03 0.03 79 1010.3
20260903203012 24 259 0.0 12.9 0.00 0.03 0.03 79 1010.4
20260903201517 23 229 4.8 12.9 0.00 0.03 0.03 80 1010.4
20260903200009 23 218 0.0 11.3 0.00 0.03 0.03 82 1010.7
20260903194507 23 189 0.0 12.9 0.00 0.03 0.03 81 1010.7
20260903193006 23 260 0.0 12.9 0.00 0.03 0.03 80 1010.9
20260903191503 23 192 3.2 20.9 0.00 0.03 0.03 83 1011.0
20260903190059 22 188 3.2 16.1 0.00 0.03 0.03 86 1011.0
20260903184555 21 198 3.2 20.9 0.00 0.03 0.03 87 1011.2
20260903183051 19 144 0.0 0.0 0.00 0.03 0.03 86 1011.2
20260903181548 18 145 0.0 0.0 0.00 0.03 0.03 86 1011.5
20260903180047 18 145 0.0 0.0 0.00 0.03 0.03 86 1011.7
20260903174544 18 146 0.0 0.0 0.00 0.03 0.03 86 1011.7
20260903173044 18 148 0.0 0.0 0.00 0.03 0.03 86 1011.7
20260903171540 17 147 0.0 0.0 0.00 0.03 0.03 86 1012.0
20260903170051 17 147 0.0 0.0 0.00 0.03 0.03 86 1012.0
20260903164535 17 148 0.0 0.0 0.00 0.03 0.03 86 1012.1
20260903163034 17 148 0.0 0.0 0.00 0.03 0.03 86 1012.3
20260903161535 17 148 0.0 0.0 0.00 0.03 0.03 86 1012.3
20260903160032 17 148 0.0 0.0 0.00 0.03 0.03 87 1012.4
20260903154535 17 148 0.0 0.0 0.00 0.03 0.03 87 1012.4
20260903153026 16 148 0.0 0.0 0.00 0.03 0.03 87 1012.5
20260903151524 16 148 0.0 0.0 0.00 0.03 0.03 87 1012.6
20260903150023 15 148 0.0 0.0 0.00 0.03 0.03 87 1012.8
20260903144523 15 148 0.0 0.0 0.00 0.03 0.03 87 1012.8
20260903143020 15 148 0.0 0.0 0.00 0.03 0.03 87 1012.7
20260903141531 15 148 0.0 0.0 0.00 0.03 0.03 87 1012.8
20260903140017 15 148 0.0 0.0 0.00 0.03 0.03 87 1012.9
20260903134516 14 148 0.0 0.0 0.00 0.03 0.03 87 1013.0
20260903133016 14 148 0.0 0.0 0.00 0.03 0.03 87 1012.9
20260903131515 14 148 0.0 0.0 0.00 0.03 0.03 87 1013.0
20260903130015 14 148 0.0 0.0 0.03 0.03 0.03 87 1013.0
20260903124517 14 148 0.0 0.0 0.03 0.03 0.03 88 1013.0
20260903123013 14 148 0.0 0.0 0.03 0.03 0.03 88 1013.2